Date String (YYYY-MM-DD hh:mm:ss) UTC,Instrument flags,Ambient pressure (hPa),Sample flow (lpm),Bypass flow (lpm),Sample temperature (°C),Ambient temperature (°C),ASC tube jacket temperature (°C),LED temperature (°C),Box temperature (°C),Sample RH (%),Span deviation,Mass concentration (μg/m³),Mass concentration (μg/m³),Mass concentration (μg/m³)
DateTimeUTC,F1_M11,P_M11,Q1_M11,Q2_M11,T1_M11,T2_M11,T3_M11,T4_M11,T5_M11,U1_M11,ZSPAN_M11,X0_M11,X2_M11,X1_M11
2022-10-22 03:00:00,,0816.0,5.00,0.00,29.7,28.3,00.0,38.6,31.6,07.0,0000.0,0005.22,0003.39,0002.96
2022-10-22 03:01:00,,0816.0,5.00,0.00,29.7,28.3,00.0,38.6,31.6,07.0,0000.0,0005.15,0003.39,0002.96
2022-10-22 03:02:00,,0816.0,5.00,0.00,29.8,28.3,00.0,38.6,31.6,07.0,0000.0,0005.14,0003.39,0002.96
2022-10-22 03:03:00,,0816.0,4.99,0.00,29.8,28.3,00.0,38.6,31.6,06.9,0000.0,0005.10,0003.37,0002.96
2022-10-22 03:04:00,,0815.9,5.00,0.00,29.8,28.3,00.0,38.6,31.6,06.9,0000.0,0005.36,0003.35,0002.96
2022-10-22 03:05:00,,0815.8,5.00,0.00,29.8,28.3,00.0,38.6,31.6,07.0,0000.0,0005.76,0003.36,0002.97
2022-10-22 03:06:00,,0815.8,5.00,0.00,29.8,28.4,00.0,38.6,31.6,07.0,0000.0,0006.04,0003.38,0002.98
2022-10-22 03:07:00,,0815.7,5.00,0.00,29.8,28.4,00.0,38.6,31.6,07.0,0000.0,0006.28,0003.40,0002.99
2022-10-22 03:08:00,,0815.7,4.99,0.00,29.8,28.4,00.0,38.7,31.6,07.0,0000.0,0006.43,0003.43,0003.02
2022-10-22 03:09:00,,0815.8,5.00,0.00,29.8,28.3,00.0,38.7,31.6,07.0,0000.0,0006.81,0003.46,0003.06
2022-10-22 03:10:00,,0815.8,4.99,0.00,29.8,28.4,00.0,38.7,31.6,07.0,0000.0,0006.94,0003.49,0003.08
2022-10-22 03:11:00,,0815.8,5.01,0.00,29.8,28.4,00.0,38.7,31.7,07.0,0000.0,0006.86,0003.49,0003.09
2022-10-22 03:12:00,,0815.8,4.99,0.00,29.9,28.4,00.0,38.7,31.7,07.1,0000.0,0007.05,0003.53,0003.12
2022-10-22 03:13:00,,0815.7,5.00,0.00,29.9,28.4,00.0,38.7,31.7,07.1,0000.0,0007.32,0003.58,0003.14
2022-10-22 03:14:00,,0815.7,5.01,0.00,29.9,28.4,00.0,38.7,31.7,07.0,0000.0,0007.40,0003.62,0003.16
2022-10-22 03:15:00,,0815.7,5.00,0.00,29.9,28.4,00.0,38.7,31.7,07.0,0000.0,0007.34,0003.66,0003.18
2022-10-22 03:16:00,,0815.7,5.00,0.00,29.9,28.4,00.0,38.7,31.7,07.0,0000.0,0007.50,0003.67,0003.18
2022-10-22 03:17:00,,0815.7,5.01,0.00,29.9,28.4,00.0,38.7,31.7,07.0,0000.0,0007.54,0003.65,0003.19
2022-10-22 03:18:00,,0815.7,5.00,0.00,29.9,28.4,00.0,38.7,31.7,06.8,0000.0,0007.35,0003.63,0003.18
2022-10-22 03:19:00,,0815.8,5.00,0.00,29.9,28.4,00.0,38.7,31.7,06.8,0000.0,0007.24,0003.61,0003.18
2022-10-22 03:20:00,,0815.8,5.00,0.00,29.9,28.4,00.0,38.8,31.6,07.0,0000.0,0007.10,0003.62,0003.18
2022-10-22 03:21:00,,0815.7,5.01,0.00,29.9,28.4,00.0,38.8,31.6,07.0,0000.0,0006.82,0003.60,0003.18
2022-10-22 03:22:00,,0815.6,5.00,0.00,29.9,28.4,00.0,38.8,31.6,07.0,0000.0,0006.98,0003.61,0003.18
2022-10-22 03:23:00,,0815.7,5.00,0.00,29.9,28.4,00.0,38.8,31.7,07.0,0000.0,0006.88,0003.60,0003.18
2022-10-22 03:24:00,,0816.0,4.99,0.00,29.9,28.4,00.0,38.8,31.7,07.0,0000.0,0006.80,0003.56,0003.17
2022-10-22 03:25:00,,0815.9,5.00,0.00,29.9,28.4,00.0,38.8,31.6,06.9,0000.0,0006.93,0003.53,0003.17
2022-10-22 03:26:00,,0816.0,4.99,0.00,29.9,28.4,00.0,38.8,31.7,06.8,0000.0,0007.28,0003.51,0003.17
2022-10-22 03:27:00,,0815.9,5.01,0.00,29.9,28.4,00.0,38.8,31.7,06.9,0000.0,0006.76,0003.52,0003.17
2022-10-22 03:28:00,,0815.7,5.00,0.00,29.9,28.4,00.0,38.8,31.7,06.8,0000.0,0006.45,0003.53,0003.18
2022-10-22 03:29:00,,0816.0,4.99,0.00,29.9,28.4,00.0,38.8,31.7,06.8,0000.0,0006.52,0003.55,0003.19
2022-10-22 03:30:00,,0816.1,5.00,0.00,29.9,28.4,00.0,38.8,31.7,06.9,0000.0,0006.66,0003.56,0003.20
2022-10-22 03:31:00,,0815.5,4.99,0.00,29.9,28.4,00.0,38.8,31.7,06.8,0000.0,0006.74,0003.53,0003.20
2022-10-22 03:32:00,,0815.7,5.00,0.00,29.9,28.4,00.0,38.8,31.7,06.6,0000.0,0006.90,0003.55,0003.19
2022-10-22 03:33:00,,0815.8,5.00,0.00,29.9,28.4,00.0,38.8,31.7,06.7,0000.0,0007.17,0003.56,0003.19
2022-10-22 03:34:00,,0815.7,5.00,0.00,29.9,28.3,00.0,38.8,31.7,06.8,0000.0,0007.41,0003.57,0003.19
2022-10-22 03:35:00,,0815.8,5.00,0.00,29.9,28.3,00.0,38.8,31.6,06.7,0000.0,0007.26,0003.56,0003.20
2022-10-22 03:36:00,,0816.0,5.00,0.00,29.9,28.4,00.0,38.8,31.7,06.7,0000.0,0007.06,0003.57,0003.19
2022-10-22 03:37:00,,0816.0,4.99,0.00,29.9,28.4,00.0,38.8,31.7,06.8,0000.0,0007.50,0003.60,0003.20
2022-10-22 03:38:00,,0815.7,5.00,0.00,29.9,28.4,00.0,38.8,31.7,06.8,0000.0,0008.14,0003.58,0003.20
2022-10-22 03:39:00,,0815.4,4.99,0.00,29.9,28.3,00.0,38.8,31.7,06.7,0000.0,0008.62,0003.57,0003.20
2022-10-22 03:40:00,,0815.4,4.99,0.00,29.9,28.3,00.0,38.8,31.6,06.7,0000.0,0008.94,0003.58,0003.19
2022-10-22 03:41:00,,0815.4,5.01,0.00,29.9,28.4,00.0,38.8,31.6,06.7,0000.0,0009.57,0003.60,0003.19
2022-10-22 03:42:00,,0815.4,4.99,0.00,29.9,28.4,00.0,38.8,31.7,06.7,0000.0,0009.63,0003.59,0003.19
2022-10-22 03:43:00,,0815.4,5.00,0.00,29.9,28.4,00.0,38.8,31.7,06.7,0000.0,0010.00,0003.58,0003.20
2022-10-22 03:44:00,,0815.4,4.99,0.00,29.9,28.4,00.0,38.8,31.7,06.7,0000.0,0009.87,0003.61,0003.20
2022-10-22 03:45:00,,0815.4,5.01,0.00,29.9,28.4,00.0,38.8,31.7,06.7,0000.0,0009.74,0003.60,0003.20
2022-10-22 03:46:00,,0815.4,5.00,0.00,29.9,28.4,00.0,38.8,31.7,06.7,0000.0,0009.78,0003.62,0003.20
2022-10-22 03:47:00,,0815.4,5.00,0.00,29.9,28.4,00.0,38.8,31.7,06.7,0000.0,0009.83,0003.63,0003.20
2022-10-22 03:48:00,,0815.4,5.01,0.00,30.0,28.4,00.0,38.8,31.7,06.6,0000.0,0009.42,0003.62,0003.20
2022-10-22 03:49:00,,0815.4,5.01,0.00,30.0,28.4,00.0,38.8,31.7,06.6,0000.0,0009.05,0003.61,0003.19
2022-10-22 03:50:00,,0815.3,5.01,0.00,30.0,28.4,00.0,38.9,31.7,06.6,0000.0,0008.59,0003.61,0003.18
2022-10-22 03:51:00,,0815.2,5.00,0.00,30.0,28.4,00.0,38.9,31.7,06.5,0000.0,0008.43,0003.59,0003.18
2022-10-22 03:52:00,,0815.2,5.00,0.00,29.9,28.4,00.0,38.9,31.7,06.5,0000.0,0008.49,0003.58,0003.18
2022-10-22 03:53:00,,0815.3,4.99,0.00,29.9,28.4,00.0,38.9,31.7,06.5,0000.0,0008.99,0003.59,0003.17
2022-10-22 03:54:00,,0815.2,5.00,0.00,30.0,28.4,00.0,38.9,31.7,06.5,0000.0,0009.56,0003.59,0003.17
2022-10-22 03:55:00,,0815.2,5.00,0.00,30.0,28.4,00.0,38.9,31.7,06.5,0000.0,0009.58,0003.55,0003.16
2022-10-22 03:56:00,,0815.3,5.00,0.00,29.9,28.4,00.0,38.9,31.7,06.3,0000.0,0009.60,0003.53,0003.16
2022-10-22 03:57:00,,0815.3,5.00,0.00,30.0,28.4,00.0,38.9,31.7,06.5,0000.0,0009.64,0003.53,0003.15
2022-10-22 03:58:00,,0815.4,4.99,0.00,30.0,28.4,00.0,38.9,31.7,06.5,0000.0,0009.73,0003.54,0003.15
2022-10-22 03:59:00,,0815.4,5.00,0.00,30.0,28.4,00.0,38.9,31.7,06.4,0000.0,0009.58,0003.53,0003.15
